User: anonymous   Login
Location: Unspecified
(0.0000°N, 0.0000°E)
Time: 05:03:29
(UTC+01:00)
Language:

Cosmos 1437 - Orbit

View from above orbital plane
View from above orbital plane
View from above satellite
View from above satellite

Ground track
Ground track

The orbit data is extracted from the following two-line orbital elements,

1 13770U 83003A   14331.82267604  .00015817  00000-0  47704-3 0  7130
2 13770 081.1648 200.9538 0008576 281.7598 130.4742 15.34143573742630
Epoch (UTC): 27 November 2014 19:44:39
Eccentricity: 0.0008576
inclination: 81.1648°
perigee height: 457 km
apogee height: 469 km
right ascension of ascending node: 200.9538°
argument of perigee: 281.7598°
revolutions per day: 15.34143573
mean anomaly at epoch: 130.4742°
orbit number at epoch: 74263

The dashed part of the orbit path shows where the satellite is in the earth's shadow,  

DLR